Flag for Kazakhstan Weather past 2 weeks in Astana, Kazakhstan

30 °F

Ice fog.

Feels Like: 19 °F
Forecast: 25 / 30 °F
Wind: 15 mph from Southwest

Location: Astana

Current Time: Nov 26, 2015 at 4:57:26 PM

Latest Report: Nov 26, 2015 at 4:30 PM

Visibility: 1 mi

Pressure: 30.18 "Hg

Humidity: 100%

Dew point: 30 °F

Location of AstanaLocation

Historic Weather in Astana — Graph


Astana temperature yesterday

Maximum temperature yesterday: 32 °F (at 7:30 PM)
Minimum temperature yesterday: 27 °F (at 12:30 AM)
Average temperature yesterday: 29 °F

Past Weeks' High & Low Weather Summary

High34 °F (Nov 24, 2:00 PM)100% (Nov 25, 6:00 PM)30.66 "Hg (Nov 25, 6:00 PM)
Low-22 °F (Nov 22, 2:00 AM)51% (Nov 24, 12:00 PM)29.86 "Hg (Nov 14, 5:00 AM)
Average13 °F81%30.24 "Hg
* Reported Nov 11 3:00 PM — Nov 26 3:30 PM, Astana, Weather by CustomWeather, © 2015

Note: Actual official high and low records may vary slightly from our data, if they occured in-between our weather recording intervals... More about our weather records


Astana weather history for previous 24 hours

Time TempWeatherWind HumidityBarometerVisibility
3:30 PM
Thu, Nov 26
30 °FLow clouds.17 mph93%30.15 "Hg4 mi
3:00 PM28 °FLow clouds.15 mph100%30.18 "HgN/A
2:30 PM28 °FLow clouds.17 mph93%30.15 "HgN/A
2:00 PM28 °FMore clouds than sun.17 mph93%30.15 "HgN/A
1:30 PM28 °FMore clouds than sun.17 mph93%30.15 "HgN/A
1:00 PM28 °FPartly sunny.15 mph93%30.18 "HgN/A
12:30 PM28 °FSunny.15 mph86%30.18 "Hg10 mi
12:00 PM27 °FSunny.13 mph93%30.18 "Hg10 mi
11:30 AM27 °FSunny.10 mph93%30.18 "Hg10 mi
11:00 AM25 °FSunny.10 mph93%30.18 "Hg10 mi
10:30 AM25 °FSunny.8 mph93%30.18 "Hg10 mi
9:30 AM25 °FClear.8 mph93%30.21 "Hg10 mi
9:00 AM25 °FClear.8 mph93%30.21 "Hg10 mi
8:30 AM23 °FClear.8 mph93%30.18 "Hg10 mi
8:00 AM23 °FClear.6 mph93%30.18 "Hg10 mi
7:30 AM21 °FClear.6 mph93%30.21 "Hg10 mi
7:00 AM21 °FClear.3 mph93%30.21 "Hg10 mi
6:30 AM23 °FClear.6 mph93%30.21 "Hg10 mi
6:00 AM23 °FClear.8 mph93%30.21 "Hg10 mi
5:00 AM23 °FClear.8 mph93%30.21 "Hg10 mi
4:30 AM25 °FClear.10 mph93%30.21 "Hg10 mi
4:00 AM25 °FClear.10 mph93%30.21 "Hg10 mi
3:30 AM23 °FClear.8 mph100%30.21 "Hg10 mi
3:00 AM23 °FClear.8 mph93%30.21 "Hg10 mi
2:30 AM23 °FClear.8 mph93%30.21 "Hg10 mi
2:00 AM23 °FPartly cloudy.8 mph93%30.21 "HgN/A
1:30 AM21 °FPartly cloudy.8 mph100%30.24 "HgN/A
1:00 AM23 °FPartly cloudy.6 mph93%30.24 "HgN/A
12:30 AM23 °FPartly cloudy.3 mph93%30.24 "HgN/A
12:00 AM25 °FPartly cloudy.6 mph93%30.27 "HgN/A
11:30 PM
Wed, Nov 25
27 °FPartly cloudy.6 mph93%30.27 "HgN/A
11:00 PM27 °FPartly cloudy.8 mph93%30.27 "HgN/A
10:30 PM28 °FMostly cloudy.8 mph86%30.27 "HgN/A
10:00 PM28 °FMostly cloudy.6 mph93%30.27 "HgN/A
9:30 PM30 °FMostly cloudy.8 mph86%30.30 "HgN/A
9:00 PM30 °FMostly cloudy.6 mph93%30.30 "HgN/A
8:30 PM32 °FMostly cloudy.8 mph87%30.30 "HgN/A
8:00 PM32 °FMostly cloudy.8 mph87%30.30 "Hg4 mi
7:30 PM32 °FMostly cloudy.6 mph87%30.30 "HgN/A
7:00 PM30 °FMostly cloudy.3 mph100%30.30 "HgN/A
6:30 PM30 °FLight freezing rain. Mostly cloudy.8 mph100%30.30 "Hg3 mi
6:00 PM30 °FLight freezing rain. Mostly cloudy.8 mph100%30.30 "Hg3 mi
5:30 PM30 °FLight freezing rain. Ice fog.10 mph93%30.33 "Hg3 mi
5:00 PM30 °FLight freezing rain. Ice fog.10 mph93%30.33 "Hg2 mi
4:30 PM30 °FLight freezing rain. Ice fog.10 mph93%30.33 "Hg2 mi
4:00 PM30 °FLight freezing rain. Ice fog.8 mph93%30.33 "Hg3 mi
Weather by CustomWeather, © 2015

See weather overviewHow to use our weather pages